This demonstration page uses our WeatherBlox Daily Observations layout. Learn more.

Left ArrowRight Arrow

Hourly Observations for August 13, 2022

Temp ( °F °C ) Dew Point ( °F °C ) Humidity (%) Winds ( mph kmh ) Pressure ( in mb ) Visibility ( mi km ) Precip ( " mm )
12:52 am 00:52 Clear 74 23.3 68 20 82 82 SE 8 13 30.07 1018 10 16 0.00 0.00
1:52 am 01:52 Clear 75 23.9 69 20.6 82 82 SE 12 19 30.06 1018 10 16 0.00 0.00
2:52 am 02:52 Clear 74 23.3 69 20.6 85 85 SSE 10 17 30.05 1018 10 16 0.00 0.00
3:52 am 03:52 Clear 72 22.2 69 20.6 91 91 SSE 12 19 30.06 1018 10 16 0.00 0.00
4:52 am 04:52 Clear 71 21.7 68 20 90 90 SSE 10 17 30.05 1018 10 16 0.00 0.00
5:52 am 05:52 Clear 70 21.1 67 19.4 90 90 SSE 8 13 30.06 1018 10 16 0.00 0.00
6:52 am 06:52 Sunny 69 20.6 66 18.9 90 90 S 8 13 30.08 1019 10 16 0.00 0.00
7:52 am 07:52 Sunny 71 21.7 64 17.8 79 79 SSE 13 20 30.09 1019 10 16 0.00 0.00
8:52 am 08:52 Sunny 74 23.3 63 17.2 69 69 SSE 13 20 30.10 1019 10 16 0.00 0.00
9:52 am 09:52 Sunny 77 25 64 17.8 64 64 SSE 9 15 30.11 1020 10 16 0.00 0.00
10:52 am 10:52 Sunny 80 26.7 67 19.4 64 64 SSE 8 13 30.11 1020 10 16 0.00 0.00
11:52 am 11:52 Sunny 82 27.8 69 20.6 65 65 S 9 15 30.09 1019 10 16 0.00 0.00
12:52 pm 12:52 Sunny 84 28.9 67 19.4 57 57 WSW 6 9 30.07 1018 10 16 0.00 0.00
1:52 pm 13:52 Mostly Sunny 86 30 69 20.6 57 57 SSW 8 13 30.05 1018 10 16 0.00 0.00
2:52 pm 14:52 Sunny 87 30.6 68 20 53 53 Calm 30.03 1017 10 16 0.00 0.00
3:52 pm 15:52 Sunny 88 31.1 68 20 52 52 SW 3 6 30.01 1016 10 16 0.00 0.00
4:52 pm 16:52 Sunny 88 31.1 68 20 52 52 S 8 13 29.99 1016 10 16 0.00 0.00
5:52 pm 17:52 Sunny 88 31.1 67 19.4 50 50 S 9 15 29.98 1015 10 16 0.00 0.00
6:52 pm 18:52 Sunny 86 30 68 20 55 55 S 10 17 29.98 1015 10 16 0.00 0.00
7:52 pm 19:52 Sunny 82 27.8 68 20 63 63 S 6 9 29.98 1015 10 16 0.00 0.00
8:52 pm 20:52 Clear 79 26.1 68 20 69 69 S 8 13 29.98 1015 10 16 0.00 0.00
9:52 pm 21:52 Clear 78 25.6 67 19.4 69 69 S 8 13 29.98 1015 10 16 0.00 0.00
10:52 pm 22:52 Clear 77 25 66 18.9 69 69 S 9 15 29.98 1015 10 16 0.00 0.00
11:52 pm 23:52 Clear 76 24.4 67 19.4 74 74 S 9 15 29.98 1015 10 16 0.00 0.00

Powered by AerisWeather